Time,TemperatureF,DewpointF,PressureIn,WindDirection,WindDirectionDegrees,WindSpeedMPH,WindSpeedGustMPH,Humidity,HourlyPrecipIn,Conditions,Clouds,dailyrainin,SoftwareType,DateUTC
2013-04-27 00:01:00,44.4,35.0,30.00,NNW,337,0.0,0.0,69,0.00,,,0.00,Rainwise IP-100,2013-04-27 04:01:00,
2013-04-27 00:06:00,44.0,35.0,30.00,NNW,337,1.2,1.4,69,0.00,,,0.00,Rainwise IP-100,2013-04-27 04:06:00,
2013-04-27 00:11:00,43.6,35.0,30.00,NNW,337,0.0,1.6,70,0.00,,,0.00,Rainwise IP-100,2013-04-27 04:11:00,
2013-04-27 00:15:00,43.3,35.0,30.00,NNW,337,0.0,0.0,71,0.00,,,0.00,Rainwise IP-100,2013-04-27 04:15:00,
2013-04-27 00:21:00,43.1,35.0,30.00,NNW,337,0.0,0.0,72,0.00,,,0.00,Rainwise IP-100,2013-04-27 04:21:00,
2013-04-27 00:26:00,42.8,35.0,30.00,NNW,337,0.0,0.0,73,0.00,,,0.00,Rainwise IP-100,2013-04-27 04:26:00,
2013-04-27 00:31:00,42.7,36.0,30.00,NNW,337,0.0,0.0,74,0.00,,,0.00,Rainwise IP-100,2013-04-27 04:31:00,
2013-04-27 00:36:00,42.5,36.0,30.00,NNW,337,0.0,0.0,76,0.00,,,0.00,Rainwise IP-100,2013-04-27 04:36:00,
2013-04-27 00:41:00,42.2,36.0,30.00,NNW,337,0.0,0.0,76,0.00,,,0.00,Rainwise IP-100,2013-04-27 04:41:00,
2013-04-27 00:46:00,41.9,36.0,30.00,NNW,337,0.0,0.0,76,0.00,,,0.00,Rainwise IP-100,2013-04-27 04:46:00,
2013-04-27 00:51:00,41.6,36.0,30.00,NNW,337,0.0,0.0,76,0.00,,,0.00,Rainwise IP-100,2013-04-27 04:51:00,
2013-04-27 00:56:00,41.3,35.0,30.00,NNW,337,0.0,0.0,77,0.00,,,0.00,Rainwise IP-100,2013-04-27 04:56:00,
2013-04-27 01:01:00,41.1,35.0,30.00,NNW,337,0.0,0.0,77,0.00,,,0.00,Rainwise IP-100,2013-04-27 05:01:00,
2013-04-27 01:06:00,40.7,35.0,30.00,NNW,337,0.0,0.0,77,0.00,,,0.00,Rainwise IP-100,2013-04-27 05:06:00,
2013-04-27 01:11:00,40.5,35.0,30.00,NNW,337,0.0,0.0,78,0.00,,,0.00,Rainwise IP-100,2013-04-27 05:11:00,
2013-04-27 01:16:00,40.3,35.0,30.00,NNW,337,0.0,0.0,79,0.00,,,0.00,Rainwise IP-100,2013-04-27 05:16:00,
2013-04-27 01:21:00,40.1,35.0,30.00,NNW,337,2.8,2.8,79,0.00,,,0.00,Rainwise IP-100,2013-04-27 05:21:00,
2013-04-27 01:26:00,39.7,35.0,30.00,NNW,337,0.0,3.0,80,0.00,,,0.00,Rainwise IP-100,2013-04-27 05:26:00,
2013-04-27 01:31:00,39.5,35.0,30.00,SSW,202,1.9,2.3,81,0.00,,,0.00,Rainwise IP-100,2013-04-27 05:31:00,
2013-04-27 01:37:00,39.4,33.0,30.00,SSW,202,0.0,2.8,81,0.00,,,0.00,Rainwise IP-100,2013-04-27 05:37:00,
2013-04-27 01:42:00,39.2,35.0,30.00,SSW,202,0.0,1.6,82,0.00,,,0.00,Rainwise IP-100,2013-04-27 05:42:00,
2013-04-27 01:47:00,39.0,35.0,30.00,SSW,202,0.0,0.0,83,0.00,,,0.00,Rainwise IP-100,2013-04-27 05:47:00,
2013-04-27 01:52:00,38.7,35.0,30.00,SSW,202,0.0,0.0,83,0.00,,,0.00,Rainwise IP-100,2013-04-27 05:52:00,
2013-04-27 01:57:00,38.4,33.0,30.00,SSW,202,1.2,1.4,84,0.00,,,0.00,Rainwise IP-100,2013-04-27 05:57:00,
2013-04-27 02:02:00,38.3,33.0,30.00,SSW,202,1.9,2.3,84,0.00,,,0.00,Rainwise IP-100,2013-04-27 06:02:00,
2013-04-27 02:07:00,38.1,35.0,29.99,SSW,202,0.0,2.3,85,0.00,,,0.00,Rainwise IP-100,2013-04-27 06:07:00,
2013-04-27 02:12:00,37.8,35.0,29.99,SSW,202,0.0,0.0,85,0.00,,,0.00,Rainwise IP-100,2013-04-27 06:12:00,
2013-04-27 02:17:00,37.6,35.0,29.99,SSW,202,0.0,0.0,86,0.00,,,0.00,Rainwise IP-100,2013-04-27 06:17:00,
2013-04-27 02:22:00,37.5,35.0,30.00,SSW,202,0.0,0.0,86,0.00,,,0.00,Rainwise IP-100,2013-04-27 06:22:00,
2013-04-27 02:27:00,37.3,33.0,29.99,SSW,202,0.0,0.0,87,0.00,,,0.00,Rainwise IP-100,2013-04-27 06:27:00,
2013-04-27 02:32:00,37.1,33.0,29.99,SSW,202,0.0,1.6,87,0.00,,,0.00,Rainwise IP-100,2013-04-27 06:32:00,
2013-04-27 02:37:00,36.9,33.0,29.99,SSW,202,0.0,0.0,87,0.00,,,0.00,Rainwise IP-100,2013-04-27 06:37:00,
2013-04-27 02:42:00,36.8,33.0,29.99,NE,45,0.0,1.9,88,0.00,,,0.00,Rainwise IP-100,2013-04-27 06:42:00,
2013-04-27 02:47:00,36.7,33.0,30.00,NE,45,0.0,0.0,88,0.00,,,0.00,Rainwise IP-100,2013-04-27 06:47:00,
2013-04-27 02:53:00,36.4,32.0,29.99,NE,45,0.0,1.2,88,0.00,,,0.00,Rainwise IP-100,2013-04-27 06:53:00,
2013-04-27 02:58:00,36.1,32.0,29.99,NE,45,0.0,0.0,88,0.00,,,0.00,Rainwise IP-100,2013-04-27 06:58:00,
2013-04-27 03:03:00,35.9,32.0,29.99,NE,45,0.0,1.6,88,0.00,,,0.00,Rainwise IP-100,2013-04-27 07:03:00,
2013-04-27 03:08:00,35.8,33.0,30.00,NE,45,0.0,0.0,89,0.00,,,0.00,Rainwise IP-100,2013-04-27 07:08:00,
2013-04-27 03:13:00,35.6,33.0,29.99,NE,45,0.0,0.0,89,0.00,,,0.00,Rainwise IP-100,2013-04-27 07:13:00,
2013-04-27 03:18:00,35.5,33.0,29.99,NE,45,0.0,0.0,89,0.00,,,0.00,Rainwise IP-100,2013-04-27 07:18:00,
2013-04-27 03:23:00,35.3,32.0,29.99,NE,45,0.0,0.0,90,0.00,,,0.00,Rainwise IP-100,2013-04-27 07:23:00,
2013-04-27 03:28:00,35.1,32.0,29.99,NE,45,0.0,0.0,90,0.00,,,0.00,Rainwise IP-100,2013-04-27 07:28:00,
2013-04-27 03:33:00,35.1,32.0,29.99,NE,45,0.0,0.0,90,0.00,,,0.00,Rainwise IP-100,2013-04-27 07:33:00,
2013-04-27 03:38:00,34.9,32.0,29.99,NE,45,0.0,0.0,90,0.00,,,0.00,Rainwise IP-100,2013-04-27 07:38:00,
2013-04-27 03:43:00,34.7,32.0,29.99,NE,45,0.0,0.0,90,0.00,,,0.00,Rainwise IP-100,2013-04-27 07:43:00,
2013-04-27 03:48:00,34.5,32.0,29.99,NE,45,0.0,0.0,90,0.00,,,0.00,Rainwise IP-100,2013-04-27 07:48:00,
2013-04-27 03:53:00,34.1,32.0,29.99,NE,45,0.0,0.0,90,0.00,,,0.00,Rainwise IP-100,2013-04-27 07:53:00,
2013-04-27 03:58:00,33.9,32.0,29.99,NE,45,0.0,0.0,91,0.00,,,0.00,Rainwise IP-100,2013-04-27 07:58:00,
2013-04-27 04:03:00,33.8,32.0,29.99,NE,45,0.0,0.0,91,0.00,,,0.00,Rainwise IP-100,2013-04-27 08:03:00,
2013-04-27 04:09:00,33.8,32.0,29.98,NE,45,0.0,1.2,91,0.00,,,0.00,Rainwise IP-100,2013-04-27 08:09:00,
2013-04-27 04:14:00,33.7,32.0,29.99,NE,45,0.0,0.0,92,0.00,,,0.00,Rainwise IP-100,2013-04-27 08:14:00,
2013-04-27 04:19:00,33.6,32.0,29.99,NE,45,0.0,1.4,92,0.00,,,0.00,Rainwise IP-100,2013-04-27 08:19:00,
2013-04-27 04:24:00,33.4,31.0,29.98,NE,45,0.0,0.0,92,0.00,,,0.00,Rainwise IP-100,2013-04-27 08:24:00,
2013-04-27 04:29:00,33.4,31.0,29.98,NE,45,0.0,0.0,92,0.00,,,0.00,Rainwise IP-100,2013-04-27 08:29:00,
2013-04-27 04:34:00,33.2,32.0,29.99,NE,45,0.0,0.0,93,0.00,,,0.00,Rainwise IP-100,2013-04-27 08:34:00,
2013-04-27 04:39:00,33.1,32.0,29.99,NE,45,0.0,0.0,93,0.00,,,0.00,Rainwise IP-100,2013-04-27 08:39:00,
2013-04-27 04:44:00,33.0,32.0,29.98,NE,45,0.0,0.0,93,0.00,,,0.00,Rainwise IP-100,2013-04-27 08:44:00,
2013-04-27 04:49:00,32.9,32.0,29.99,NE,45,0.0,0.0,93,0.00,,,0.00,Rainwise IP-100,2013-04-27 08:49:00,
2013-04-27 04:54:00,32.7,32.0,29.99,NE,45,0.0,0.0,93,0.00,,,0.00,Rainwise IP-100,2013-04-27 08:54:00,
2013-04-27 04:59:00,32.6,32.0,29.99,NE,45,0.0,0.0,93,0.00,,,0.00,Rainwise IP-100,2013-04-27 08:59:00,
2013-04-27 05:04:00,32.4,31.0,29.99,NE,45,0.0,1.2,93,0.00,,,0.00,Rainwise IP-100,2013-04-27 09:04:00,
2013-04-27 05:09:00,32.2,31.0,29.99,NE,45,0.0,1.2,93,0.00,,,0.00,Rainwise IP-100,2013-04-27 09:09:00,
2013-04-27 05:14:00,32.3,31.0,29.99,NE,45,0.0,0.0,94,0.00,,,0.00,Rainwise IP-100,2013-04-27 09:14:00,
2013-04-27 05:19:00,32.2,31.0,29.99,NE,45,0.0,0.0,94,0.00,,,0.00,Rainwise IP-100,2013-04-27 09:19:00,
2013-04-27 05:25:00,32.1,31.0,29.99,NE,45,0.0,0.0,94,0.00,,,0.00,Rainwise IP-100,2013-04-27 09:25:00,
2013-04-27 05:30:00,31.9,31.0,29.99,NE,45,0.0,0.0,94,0.00,,,0.00,Rainwise IP-100,2013-04-27 09:30:00,
2013-04-27 05:35:00,31.8,31.0,29.99,NE,45,0.0,0.0,94,0.00,,,0.00,Rainwise IP-100,2013-04-27 09:35:00,
2013-04-27 05:40:00,31.6,31.0,29.99,NE,45,0.0,0.0,94,0.00,,,0.00,Rainwise IP-100,2013-04-27 09:40:00,
2013-04-27 05:45:00,31.5,31.0,29.99,NW,315,0.0,3.5,94,0.00,,,0.00,Rainwise IP-100,2013-04-27 09:45:00,
2013-04-27 05:50:00,31.6,31.0,29.99,WNW,292,0.0,2.3,94,0.00,,,0.00,Rainwise IP-100,2013-04-27 09:50:00,
2013-04-27 05:55:00,31.6,31.0,30.00,WNW,292,0.0,0.0,95,0.00,,,0.00,Rainwise IP-100,2013-04-27 09:55:00,
2013-04-27 06:00:00,31.5,31.0,29.99,WNW,292,0.0,0.0,95,0.00,,,0.00,Rainwise IP-100,2013-04-27 10:00:00,
2013-04-27 06:05:00,31.4,29.0,30.00,WNW,292,0.0,0.0,95,0.00,,,0.00,Rainwise IP-100,2013-04-27 10:05:00,
2013-04-27 06:10:00,31.4,29.0,30.00,WNW,292,0.0,0.0,95,0.00,,,0.00,Rainwise IP-100,2013-04-27 10:10:00,
2013-04-27 06:15:00,31.2,29.0,30.00,WNW,292,0.0,0.0,95,0.00,,,0.00,Rainwise IP-100,2013-04-27 10:15:00,
2013-04-27 06:20:00,31.1,29.0,30.00,WNW,292,0.0,0.0,95,0.00,,,0.00,Rainwise IP-100,2013-04-27 10:20:00,
2013-04-27 06:25:00,31.3,29.0,30.00,WNW,292,0.0,0.0,95,0.00,,,0.00,Rainwise IP-100,2013-04-27 10:25:00,
2013-04-27 06:30:00,31.5,31.0,30.00,WNW,292,0.0,0.0,95,0.00,,,0.00,Rainwise IP-100,2013-04-27 10:30:00,
2013-04-27 06:35:00,31.9,31.0,30.01,WNW,292,0.0,0.0,96,0.00,,,0.00,Rainwise IP-100,2013-04-27 10:35:00,
2013-04-27 06:41:00,32.5,32.0,30.01,WNW,292,0.0,0.0,96,0.00,,,0.00,Rainwise IP-100,2013-04-27 10:41:00,
2013-04-27 06:46:00,33.1,32.0,30.01,WNW,292,0.0,0.0,96,0.00,,,0.00,Rainwise IP-100,2013-04-27 10:46:00,
2013-04-27 06:51:00,34.0,33.0,30.01,WNW,292,0.0,0.0,96,0.00,,,0.00,Rainwise IP-100,2013-04-27 10:51:00,
2013-04-27 06:56:00,34.9,33.0,30.01,WNW,292,0.0,0.0,97,0.00,,,0.00,Rainwise IP-100,2013-04-27 10:56:00,
2013-04-27 07:01:00,35.7,35.0,30.01,WNW,292,0.0,0.0,97,0.00,,,0.00,Rainwise IP-100,2013-04-27 11:01:00,
2013-04-27 07:06:00,36.4,35.0,30.01,WNW,292,0.0,0.0,97,0.00,,,0.00,Rainwise IP-100,2013-04-27 11:06:00,
2013-04-27 07:11:00,37.2,37.0,30.01,WNW,292,0.0,0.0,98,0.00,,,0.00,Rainwise IP-100,2013-04-27 11:11:00,
2013-04-27 07:16:00,38.1,38.0,30.01,South,180,0.0,1.2,98,0.00,,,0.00,Rainwise IP-100,2013-04-27 11:16:00,
2013-04-27 07:21:00,38.8,39.0,30.01,East,90,0.0,0.0,98,0.00,,,0.00,Rainwise IP-100,2013-04-27 11:21:00,
2013-04-27 07:26:00,39.2,39.0,30.01,East,90,0.0,1.4,98,0.00,,,0.00,Rainwise IP-100,2013-04-27 11:26:00,
2013-04-27 07:31:00,39.7,40.0,30.02,East,90,0.0,1.4,98,0.00,,,0.00,Rainwise IP-100,2013-04-27 11:31:00,
2013-04-27 07:36:00,39.9,40.0,30.01,East,90,1.2,1.9,98,0.00,,,0.00,Rainwise IP-100,2013-04-27 11:36:00,
2013-04-27 07:41:00,39.5,40.0,30.02,ENE,67,1.9,2.8,98,0.00,,,0.00,Rainwise IP-100,2013-04-27 11:41:00,
2013-04-27 07:46:00,39.8,40.0,30.02,NE,45,1.9,3.0,98,0.00,,,0.00,Rainwise IP-100,2013-04-27 11:46:00,
2013-04-27 07:51:00,40.4,39.0,30.02,NE,45,2.3,3.0,97,0.00,,,0.00,Rainwise IP-100,2013-04-27 11:51:00,
2013-04-27 07:57:00,40.9,40.0,30.01,ENE,67,1.2,2.3,96,0.00,,,0.00,Rainwise IP-100,2013-04-27 11:57:00,
2013-04-27 08:02:00,41.3,40.0,30.02,NE,45,2.8,3.0,96,0.00,,,0.00,Rainwise IP-100,2013-04-27 12:02:00,
2013-04-27 08:07:00,41.4,40.0,30.02,NNE,22,1.2,3.0,95,0.00,,,0.00,Rainwise IP-100,2013-04-27 12:07:00,
2013-04-27 08:12:00,43.1,41.0,30.01,NNE,22,0.0,1.4,93,0.00,,,0.00,Rainwise IP-100,2013-04-27 12:12:00,
2013-04-27 08:17:00,44.3,41.0,30.02,NNE,22,0.0,2.3,91,0.00,,,0.00,Rainwise IP-100,2013-04-27 12:17:00,
2013-04-27 08:22:00,43.5,41.0,30.01,ENE,67,0.0,3.0,88,0.00,,,0.00,Rainwise IP-100,2013-04-27 12:22:00,
2013-04-27 08:27:00,42.5,39.0,30.01,ENE,67,1.6,2.6,86,0.00,,,0.00,Rainwise IP-100,2013-04-27 12:27:00,
2013-04-27 08:32:00,42.3,38.0,30.01,ENE,67,3.7,4.2,84,0.00,,,0.00,Rainwise IP-100,2013-04-27 12:32:00,
2013-04-27 08:37:00,41.5,37.0,30.01,ENE,67,3.0,4.0,82,0.00,,,0.00,Rainwise IP-100,2013-04-27 12:37:00,
2013-04-27 08:42:00,41.1,36.0,30.01,ENE,67,2.8,4.0,80,0.00,,,0.00,Rainwise IP-100,2013-04-27 12:42:00,
2013-04-27 08:47:00,41.6,36.0,30.01,ENE,67,2.6,3.7,79,0.00,,,0.00,Rainwise IP-100,2013-04-27 12:47:00,
2013-04-27 08:52:00,42.1,36.0,30.01,ENE,67,2.1,3.0,78,0.00,,,0.00,Rainwise IP-100,2013-04-27 12:52:00,
2013-04-27 08:57:00,42.5,37.0,30.01,ENE,67,2.1,3.0,77,0.00,,,0.00,Rainwise IP-100,2013-04-27 12:57:00,
2013-04-27 09:02:00,43.3,36.0,30.01,ENE,67,3.0,3.0,76,0.00,,,0.00,Rainwise IP-100,2013-04-27 13:02:00,
2013-04-27 09:07:00,44.4,37.0,30.01,NE,45,0.0,3.3,75,0.00,,,0.00,Rainwise IP-100,2013-04-27 13:07:00,
2013-04-27 09:13:00,46.0,38.0,30.01,NE,45,0.0,1.6,74,0.00,,,0.00,Rainwise IP-100,2013-04-27 13:13:00,
2013-04-27 09:18:00,47.1,38.0,30.00,ENE,67,0.0,3.0,73,0.00,,,0.00,Rainwise IP-100,2013-04-27 13:18:00,
2013-04-27 09:23:00,47.4,39.0,30.01,NE,45,1.2,3.0,72,0.00,,,0.00,Rainwise IP-100,2013-04-27 13:23:00,
2013-04-27 09:28:00,48.2,39.0,30.00,NE,45,1.9,2.8,70,0.00,,,0.00,Rainwise IP-100,2013-04-27 13:28:00,
2013-04-27 09:33:00,48.6,39.0,30.00,NE,45,2.6,4.4,69,0.00,,,0.00,Rainwise IP-100,2013-04-27 13:33:00,
2013-04-27 09:38:00,48.4,38.0,30.00,NNE,22,4.0,4.9,68,0.00,,,0.00,Rainwise IP-100,2013-04-27 13:38:00,
2013-04-27 09:43:00,47.9,38.0,30.00,NE,45,3.7,4.4,67,0.00,,,0.00,Rainwise IP-100,2013-04-27 13:43:00,
2013-04-27 09:48:00,47.7,36.0,30.00,ENE,67,3.0,4.9,65,0.00,,,0.00,Rainwise IP-100,2013-04-27 13:48:00,
2013-04-27 09:53:00,47.5,36.0,30.00,ENE,67,2.8,5.1,64,0.00,,,0.00,Rainwise IP-100,2013-04-27 13:53:00,
2013-04-27 09:58:00,47.9,37.0,30.00,ENE,67,3.0,3.5,64,0.00,,,0.00,Rainwise IP-100,2013-04-27 13:58:00,
2013-04-27 10:03:00,48.4,36.0,30.00,ENE,67,2.1,4.9,63,0.00,,,0.00,Rainwise IP-100,2013-04-27 14:03:00,
2013-04-27 10:09:00,48.9,37.0,30.00,NE,45,3.5,4.2,62,0.00,,,0.00,Rainwise IP-100,2013-04-27 14:09:00,
2013-04-27 10:14:00,49.4,36.0,30.00,ENE,67,3.0,4.7,61,0.00,,,0.00,Rainwise IP-100,2013-04-27 14:14:00,
2013-04-27 10:19:00,50.2,37.0,30.00,East,90,0.0,4.9,61,0.00,,,0.00,Rainwise IP-100,2013-04-27 14:19:00,
2013-04-27 10:24:00,51.5,38.0,29.99,ENE,67,4.2,5.6,60,0.00,,,0.00,Rainwise IP-100,2013-04-27 14:24:00,
2013-04-27 10:29:00,51.2,37.0,29.99,ENE,67,2.1,5.4,59,0.00,,,0.00,Rainwise IP-100,2013-04-27 14:29:00,
2013-04-27 10:34:00,51.3,37.0,29.99,ESE,112,0.0,4.7,58,0.00,,,0.00,Rainwise IP-100,2013-04-27 14:34:00,
2013-04-27 10:39:00,52.0,37.0,29.98,ENE,67,5.4,5.8,57,0.00,,,0.00,Rainwise IP-100,2013-04-27 14:39:00,
2013-04-27 10:44:00,51.9,37.0,29.99,ENE,67,2.8,5.6,56,0.00,,,0.00,Rainwise IP-100,2013-04-27 14:44:00,
2013-04-27 10:49:00,52.4,36.0,29.98,East,90,3.3,5.8,55,0.00,,,0.00,Rainwise IP-100,2013-04-27 14:49:00,
2013-04-27 10:54:00,52.9,37.0,29.98,ENE,67,2.6,4.2,54,0.00,,,0.00,Rainwise IP-100,2013-04-27 14:54:00,
2013-04-27 10:59:00,53.7,37.0,29.98,ENE,67,2.6,5.6,54,0.00,,,0.00,Rainwise IP-100,2013-04-27 14:59:00,
2013-04-27 11:04:00,54.6,37.0,29.98,ESE,112,2.1,5.4,52,0.00,,,0.00,Rainwise IP-100,2013-04-27 15:04:00,
2013-04-27 11:09:00,54.6,37.0,29.98,NE,45,4.0,5.1,51,0.00,,,0.00,Rainwise IP-100,2013-04-27 15:09:00,
2013-04-27 11:14:00,54.5,36.0,29.97,NE,45,3.5,4.9,49,0.00,,,0.00,Rainwise IP-100,2013-04-27 15:14:00,
2013-04-27 11:19:00,54.5,36.0,29.98,ENE,67,4.4,5.4,48,0.00,,,0.00,Rainwise IP-100,2013-04-27 15:19:00,
2013-04-27 11:25:00,54.8,36.0,29.97,NE,45,0.0,7.9,47,0.00,,,0.00,Rainwise IP-100,2013-04-27 15:25:00,
2013-04-27 11:30:00,55.5,36.0,29.98,East,90,2.3,5.4,46,0.00,,,0.00,Rainwise IP-100,2013-04-27 15:30:00,
2013-04-27 11:35:00,55.7,35.0,29.97,ENE,67,3.7,4.9,45,0.00,,,0.00,Rainwise IP-100,2013-04-27 15:35:00,
2013-04-27 11:40:00,55.6,33.0,29.97,NE,45,2.1,5.6,43,0.00,,,0.00,Rainwise IP-100,2013-04-27 15:40:00,
2013-04-27 11:45:00,56.4,33.0,29.96,WSW,247,2.8,7.7,42,0.00,,,0.00,Rainwise IP-100,2013-04-27 15:45:00,
2013-04-27 11:50:00,57.6,35.0,29.97,SSW,202,1.9,5.6,42,0.00,,,0.00,Rainwise IP-100,2013-04-27 15:50:00,
2013-04-27 11:55:00,58.5,36.0,29.96,NNE,22,2.3,6.5,41,0.00,,,0.00,Rainwise IP-100,2013-04-27 15:55:00,
2013-04-27 12:00:00,58.4,35.0,29.96,NE,45,1.2,6.3,40,0.00,,,0.00,Rainwise IP-100,2013-04-27 16:00:00,
2013-04-27 12:05:00,57.7,33.0,29.96,SSE,157,0.0,7.5,39,0.00,,,0.00,Rainwise IP-100,2013-04-27 16:05:00,
2013-04-27 12:10:00,58.2,33.0,29.95,NE,45,1.6,4.0,39,0.00,,,0.00,Rainwise IP-100,2013-04-27 16:10:00,
2013-04-27 12:15:00,58.1,33.0,29.95,WNW,292,0.0,5.6,38,0.00,,,0.00,Rainwise IP-100,2013-04-27 16:15:00,
2013-04-27 12:20:00,58.5,33.0,29.95,SSE,157,1.2,5.4,37,0.00,,,0.00,Rainwise IP-100,2013-04-27 16:20:00,
2013-04-27 12:25:00,59.0,32.0,29.95,ESE,112,5.8,6.8,36,0.00,,,0.00,Rainwise IP-100,2013-04-27 16:25:00,
2013-04-27 12:30:00,58.5,31.0,29.94,WSW,247,3.5,6.8,33,0.00,,,0.00,Rainwise IP-100,2013-04-27 16:30:00,
2013-04-27 12:35:00,59.3,28.0,29.94,WNW,292,4.0,7.0,30,0.00,,,0.00,Rainwise IP-100,2013-04-27 16:35:00,
2013-04-27 12:41:00,60.0,26.0,29.94,SSE,157,2.6,9.6,27,0.00,,,0.00,Rainwise IP-100,2013-04-27 16:41:00,
2013-04-27 12:46:00,60.1,23.0,29.94,NW,315,2.8,6.5,24,0.00,,,0.00,Rainwise IP-100,2013-04-27 16:46:00,
2013-04-27 12:51:00,60.2,23.0,29.93,South,180,3.0,7.0,23,0.00,,,0.00,Rainwise IP-100,2013-04-27 16:51:00,
2013-04-27 12:56:00,60.4,23.0,29.93,ENE,67,2.8,8.9,23,0.00,,,0.00,Rainwise IP-100,2013-04-27 16:56:00,
2013-04-27 13:01:00,60.4,23.0,29.93,SSE,157,2.1,8.6,23,0.00,,,0.00,Rainwise IP-100,2013-04-27 17:01:00,
2013-04-27 13:06:00,59.9,21.0,29.92,NNE,22,5.6,9.8,22,0.00,,,0.00,Rainwise IP-100,2013-04-27 17:06:00,
2013-04-27 13:11:00,59.2,21.0,29.92,ESE,112,3.0,6.8,22,0.00,,,0.00,Rainwise IP-100,2013-04-27 17:11:00,
2013-04-27 13:16:00,59.7,21.0,29.92,SSW,202,7.7,9.8,21,0.00,,,0.00,Rainwise IP-100,2013-04-27 17:16:00,
2013-04-27 13:21:00,60.5,21.0,29.92,SSW,202,4.2,10.5,21,0.00,,,0.00,Rainwise IP-100,2013-04-27 17:21:00,
2013-04-27 13:26:00,60.4,21.0,29.91,SSW,202,0.0,9.8,20,0.00,,,0.00,Rainwise IP-100,2013-04-27 17:26:00,
2013-04-27 13:31:00,60.8,18.0,29.91,NNE,22,7.5,7.5,19,0.00,,,0.00,Rainwise IP-100,2013-04-27 17:31:00,
2013-04-27 13:36:00,61.1,21.0,29.91,SSW,202,0.0,9.1,20,0.00,,,0.00,Rainwise IP-100,2013-04-27 17:36:00,
2013-04-27 13:41:00,60.6,18.0,29.91,East,90,2.3,8.6,19,0.00,,,0.00,Rainwise IP-100,2013-04-27 17:41:00,
2013-04-27 13:46:00,60.6,18.0,29.91,ESE,112,2.3,5.1,19,0.00,,,0.00,Rainwise IP-100,2013-04-27 17:46:00,
2013-04-27 13:52:00,61.3,21.0,29.91,WSW,247,4.2,4.2,20,0.00,,,0.00,Rainwise IP-100,2013-04-27 17:52:00,
2013-04-27 13:57:00,62.1,21.0,29.90,NNE,22,4.7,10.5,20,0.00,,,0.00,Rainwise IP-100,2013-04-27 17:57:00,
2013-04-27 14:02:00,61.8,21.0,29.90,ENE,67,3.7,9.1,20,0.00,,,0.00,Rainwise IP-100,2013-04-27 18:02:00,
2013-04-27 14:07:00,61.0,21.0,29.90,ENE,67,3.7,5.6,20,0.00,,,0.00,Rainwise IP-100,2013-04-27 18:07:00,
2013-04-27 14:12:00,61.4,21.0,29.90,SSE,157,3.0,5.6,20,0.00,,,0.00,Rainwise IP-100,2013-04-27 18:12:00,
2013-04-27 14:17:00,62.4,21.0,29.90,NNE,22,3.0,7.2,20,0.00,,,0.00,Rainwise IP-100,2013-04-27 18:17:00,
2013-04-27 14:22:00,62.7,21.0,29.90,SSE,157,1.6,4.9,20,0.00,,,0.00,Rainwise IP-100,2013-04-27 18:22:00,
2013-04-27 14:27:00,62.5,21.0,29.89,NNE,22,7.9,14.5,20,0.00,,,0.00,Rainwise IP-100,2013-04-27 18:27:00,
2013-04-27 14:32:00,62.5,23.0,29.89,ENE,67,2.3,10.7,21,0.00,,,0.00,Rainwise IP-100,2013-04-27 18:32:00,
2013-04-27 14:37:00,62.9,23.0,29.88,NE,45,8.4,12.8,21,0.00,,,0.00,Rainwise IP-100,2013-04-27 18:37:00,
2013-04-27 14:42:00,63.0,23.0,29.88,NNE,22,11.2,11.7,21,0.00,,,0.00,Rainwise IP-100,2013-04-27 18:42:00,
2013-04-27 14:47:00,62.4,23.0,29.88,NNE,22,5.8,11.2,21,0.00,,,0.00,Rainwise IP-100,2013-04-27 18:47:00,
2013-04-27 14:52:00,61.9,23.0,29.88,ENE,67,1.4,9.6,21,0.00,,,0.00,Rainwise IP-100,2013-04-27 18:52:00,
2013-04-27 14:57:00,62.1,23.0,29.87,SSW,202,3.7,7.5,22,0.00,,,0.00,Rainwise IP-100,2013-04-27 18:57:00,
2013-04-27 15:02:00,63.2,23.0,29.87,NNW,337,1.6,6.3,21,0.00,,,0.00,Rainwise IP-100,2013-04-27 19:02:00,
2013-04-27 15:08:00,63.3,23.0,29.87,ENE,67,1.4,8.6,21,0.00,,,0.00,Rainwise IP-100,2013-04-27 19:08:00,
2013-04-27 15:13:00,62.3,23.0,29.87,NW,315,1.4,7.7,21,0.00,,,0.00,Rainwise IP-100,2013-04-27 19:13:00,
2013-04-27 15:18:00,63.0,24.0,29.87,SW,225,1.6,4.2,22,0.00,,,0.00,Rainwise IP-100,2013-04-27 19:18:00,
2013-04-27 15:23:00,64.1,24.0,29.86,NNE,22,5.1,10.0,22,0.00,,,0.00,Rainwise IP-100,2013-04-27 19:23:00,
2013-04-27 15:28:00,64.1,24.0,29.86,NNE,22,8.4,11.4,21,0.00,,,0.00,Rainwise IP-100,2013-04-27 19:28:00,
2013-04-27 15:33:00,63.4,23.0,29.86,NNE,22,4.9,14.0,21,0.00,,,0.00,Rainwise IP-100,2013-04-27 19:33:00,
2013-04-27 15:38:00,62.7,23.0,29.85,North,360,1.6,7.2,21,0.00,,,0.00,Rainwise IP-100,2013-04-27 19:38:00,
2013-04-27 15:43:00,62.4,23.0,29.86,NNE,22,6.8,7.2,21,0.00,,,0.00,Rainwise IP-100,2013-04-27 19:43:00,
2013-04-27 15:48:00,62.9,24.0,29.85,ENE,67,6.1,6.8,22,0.00,,,0.00,Rainwise IP-100,2013-04-27 19:48:00,
2013-04-27 15:53:00,63.4,26.0,29.85,ENE,67,5.1,7.2,23,0.00,,,0.00,Rainwise IP-100,2013-04-27 19:53:00,
2013-04-27 15:58:00,64.2,26.0,29.84,NNW,337,9.3,12.4,23,0.00,,,0.00,Rainwise IP-100,2013-04-27 19:58:00,
2013-04-27 16:03:00,64.6,24.0,29.84,NNW,337,6.8,13.1,22,0.00,,,0.00,Rainwise IP-100,2013-04-27 20:03:00,
2013-04-27 16:08:00,64.6,24.0,29.84,NNW,337,3.0,9.8,22,0.00,,,0.00,Rainwise IP-100,2013-04-27 20:08:00,
2013-04-27 16:13:00,65.1,26.0,29.84,WNW,292,2.3,8.9,22,0.00,,,0.00,Rainwise IP-100,2013-04-27 20:13:00,
2013-04-27 16:18:00,65.2,26.0,29.84,NNW,337,6.5,9.8,22,0.00,,,0.00,Rainwise IP-100,2013-04-27 20:18:00,
2013-04-27 16:24:00,64.8,26.0,29.84,WNW,292,4.2,10.5,23,0.00,,,0.00,Rainwise IP-100,2013-04-27 20:24:00,
2013-04-27 16:29:00,64.6,24.0,29.84,NE,45,1.2,7.0,22,0.00,,,0.00,Rainwise IP-100,2013-04-27 20:29:00,
2013-04-27 16:34:00,64.1,24.0,29.84,NNW,337,4.0,5.8,22,0.00,,,0.00,Rainwise IP-100,2013-04-27 20:34:00,
2013-04-27 16:39:00,63.8,24.0,29.84,WNW,292,0.0,4.4,22,0.00,,,0.00,Rainwise IP-100,2013-04-27 20:39:00,
2013-04-27 16:44:00,63.9,24.0,29.84,NNW,337,2.6,2.6,22,0.00,,,0.00,Rainwise IP-100,2013-04-27 20:44:00,
2013-04-27 16:49:00,63.8,26.0,29.84,ENE,67,1.9,2.8,23,0.00,,,0.00,Rainwise IP-100,2013-04-27 20:49:00,
2013-04-27 16:54:00,63.5,26.0,29.84,ENE,67,1.9,8.9,24,0.00,,,0.00,Rainwise IP-100,2013-04-27 20:54:00,
2013-04-27 16:59:00,63.2,26.0,29.84,NNE,22,2.8,9.3,24,0.00,,,0.00,Rainwise IP-100,2013-04-27 20:59:00,
2013-04-27 17:04:00,63.0,26.0,29.84,NNE,22,0.0,5.6,24,0.00,,,0.00,Rainwise IP-100,2013-04-27 21:04:00,
2013-04-27 17:09:00,62.8,26.0,29.84,NNE,22,3.7,5.1,24,0.00,,,0.00,Rainwise IP-100,2013-04-27 21:09:00,
2013-04-27 17:14:00,62.7,26.0,29.84,NNW,337,6.8,6.8,25,0.00,,,0.00,Rainwise IP-100,2013-04-27 21:14:00,
2013-04-27 17:19:00,62.8,28.0,29.84,NNW,337,0.0,6.8,25,0.00,,,0.00,Rainwise IP-100,2013-04-27 21:19:00,
2013-04-27 17:24:00,62.7,26.0,29.84,North,360,5.8,9.1,24,0.00,,,0.00,Rainwise IP-100,2013-04-27 21:24:00,
2013-04-27 17:29:00,62.3,24.0,29.84,ENE,67,1.2,6.8,22,0.00,,,0.00,Rainwise IP-100,2013-04-27 21:29:00,
2013-04-27 17:34:00,61.8,23.0,29.84,East,90,1.2,4.2,22,0.00,,,0.00,Rainwise IP-100,2013-04-27 21:34:00,
2013-04-27 17:40:00,61.6,23.0,29.84,NNW,337,0.0,6.1,22,0.00,,,0.00,Rainwise IP-100,2013-04-27 21:40:00,
2013-04-27 17:45:00,61.3,23.0,29.84,NNE,22,1.9,6.1,22,0.00,,,0.00,Rainwise IP-100,2013-04-27 21:45:00,
2013-04-27 17:50:00,61.2,23.0,29.85,NNW,337,2.3,11.4,22,0.00,,,0.00,Rainwise IP-100,2013-04-27 21:50:00,
2013-04-27 17:55:00,61.1,23.0,29.85,ENE,67,1.6,8.6,22,0.00,,,0.00,Rainwise IP-100,2013-04-27 21:55:00,
2013-04-27 18:00:00,60.9,23.0,29.85,North,360,5.8,7.5,22,0.00,,,0.00,Rainwise IP-100,2013-04-27 22:00:00,
2013-04-27 18:05:00,60.7,23.0,29.85,WNW,292,2.6,7.2,23,0.00,,,0.00,Rainwise IP-100,2013-04-27 22:05:00,
2013-04-27 18:10:00,60.7,23.0,29.85,NNE,22,3.7,6.5,23,0.00,,,0.00,Rainwise IP-100,2013-04-27 22:10:00,
2013-04-27 18:15:00,60.7,23.0,29.84,NNE,22,5.1,11.2,23,0.00,,,0.00,Rainwise IP-100,2013-04-27 22:15:00,
2013-04-27 18:20:00,60.7,23.0,29.84,NE,45,3.3,7.0,23,0.00,,,0.00,Rainwise IP-100,2013-04-27 22:20:00,
2013-04-27 18:25:00,60.7,23.0,29.84,ENE,67,2.1,6.5,23,0.00,,,0.00,Rainwise IP-100,2013-04-27 22:25:00,
2013-04-27 18:30:00,60.6,24.0,29.84,North,360,2.6,4.0,24,0.00,,,0.00,Rainwise IP-100,2013-04-27 22:30:00,
2013-04-27 18:35:00,60.5,24.0,29.84,NNE,22,2.8,2.8,24,0.00,,,0.00,Rainwise IP-100,2013-04-27 22:35:00,
2013-04-27 18:40:00,60.4,24.0,29.85,NNE,22,1.9,4.2,25,0.00,,,0.00,Rainwise IP-100,2013-04-27 22:40:00,
2013-04-27 18:45:00,60.1,24.0,29.85,NNW,337,0.0,4.9,25,0.00,,,0.00,Rainwise IP-100,2013-04-27 22:45:00,
2013-04-27 18:50:00,59.8,26.0,29.85,NNE,22,0.0,3.3,26,0.00,,,0.00,Rainwise IP-100,2013-04-27 22:50:00,
2013-04-27 18:56:00,59.6,24.0,29.85,South,180,1.2,1.2,26,0.00,,,0.00,Rainwise IP-100,2013-04-27 22:56:00,
2013-04-27 19:01:00,59.2,26.0,29.85,SSE,157,0.0,2.6,27,0.00,,,0.00,Rainwise IP-100,2013-04-27 23:01:00,
2013-04-27 19:06:00,58.8,26.0,29.85,SSE,157,1.2,2.3,28,0.00,,,0.00,Rainwise IP-100,2013-04-27 23:06:00,
2013-04-27 19:11:00,58.4,26.0,29.85,WSW,247,0.0,3.7,29,0.00,,,0.00,Rainwise IP-100,2013-04-27 23:11:00,
2013-04-27 19:16:00,57.9,28.0,29.85,NNE,22,2.6,4.0,30,0.00,,,0.00,Rainwise IP-100,2013-04-27 23:16:00,
2013-04-27 19:21:00,57.3,28.0,29.85,NNW,337,1.6,3.0,31,0.00,,,0.00,Rainwise IP-100,2013-04-27 23:21:00,
2013-04-27 19:26:00,57.2,28.0,29.85,NW,315,0.0,3.3,31,0.00,,,0.00,Rainwise IP-100,2013-04-27 23:26:00,
2013-04-27 19:31:00,57.1,26.0,29.85,NW,315,0.0,2.1,30,0.00,,,0.00,Rainwise IP-100,2013-04-27 23:31:00,
2013-04-27 19:36:00,56.8,26.0,29.85,NW,315,0.0,1.6,30,0.00,,,0.00,Rainwise IP-100,2013-04-27 23:36:00,
2013-04-27 19:41:00,56.4,26.0,29.86,NW,315,0.0,0.0,31,0.00,,,0.00,Rainwise IP-100,2013-04-27 23:41:00,
2013-04-27 19:46:00,55.9,26.0,29.86,NW,315,1.2,1.6,32,0.00,,,0.00,Rainwise IP-100,2013-04-27 23:46:00,
2013-04-27 19:51:00,55.4,28.0,29.86,NW,315,0.0,1.6,33,0.00,,,0.00,Rainwise IP-100,2013-04-27 23:51:00,
2013-04-27 19:56:00,54.8,28.0,29.85,NW,315,1.2,1.6,35,0.00,,,0.00,Rainwise IP-100,2013-04-27 23:56:00,
2013-04-27 20:01:00,54.2,28.0,29.86,NW,315,0.0,1.4,36,0.00,,,0.00,Rainwise IP-100,2013-04-28 00:01:00,
2013-04-27 20:06:00,53.7,28.0,29.86,NW,315,1.2,1.4,37,0.00,,,0.00,Rainwise IP-100,2013-04-28 00:06:00,
2013-04-27 20:12:00,53.1,28.0,29.86,NW,315,0.0,1.9,38,0.00,,,0.00,Rainwise IP-100,2013-04-28 00:12:00,
2013-04-27 20:17:00,52.6,29.0,29.86,NW,315,0.0,0.0,39,0.00,,,0.00,Rainwise IP-100,2013-04-28 00:17:00,
2013-04-27 20:22:00,52.0,29.0,29.86,NW,315,3.0,0.0,41,0.00,,,0.00,Rainwise IP-100,2013-04-28 00:22:00,
2013-04-27 20:27:00,51.9,29.0,29.86,NW,315,0.0,4.0,42,0.00,,,0.00,Rainwise IP-100,2013-04-28 00:27:00,
2013-04-27 20:32:00,51.8,31.0,29.86,WNW,292,0.0,2.8,43,0.00,,,0.00,Rainwise IP-100,2013-04-28 00:32:00,
2013-04-27 20:37:00,51.3,31.0,29.86,WNW,292,0.0,0.0,44,0.00,,,0.00,Rainwise IP-100,2013-04-28 00:37:00,
2013-04-27 20:42:00,50.6,31.0,29.86,WNW,292,0.0,0.0,45,0.00,,,0.00,Rainwise IP-100,2013-04-28 00:42:00,
2013-04-27 20:47:00,49.8,31.0,29.86,NNW,337,0.0,2.8,46,0.00,,,0.00,Rainwise IP-100,2013-04-28 00:47:00,
2013-04-27 20:52:00,49.6,31.0,29.87,NNE,22,1.2,5.4,47,0.00,,,0.00,Rainwise IP-100,2013-04-28 00:52:00,
2013-04-27 20:57:00,49.7,31.0,29.87,South,180,0.0,4.7,48,0.00,,,0.00,Rainwise IP-100,2013-04-28 00:57:00,
2013-04-27 21:02:00,49.3,31.0,29.87,SSE,157,0.0,2.1,48,0.00,,,0.00,Rainwise IP-100,2013-04-28 01:02:00,
2013-04-27 21:07:00,48.7,32.0,29.87,SSE,157,0.0,0.0,50,0.00,,,0.00,Rainwise IP-100,2013-04-28 01:07:00,
2013-04-27 21:12:00,48.2,31.0,29.88,SSE,157,0.0,0.0,51,0.00,,,0.00,Rainwise IP-100,2013-04-28 01:12:00,
2013-04-27 21:17:00,47.8,31.0,29.87,NNW,337,1.9,2.8,51,0.00,,,0.00,Rainwise IP-100,2013-04-28 01:17:00,
2013-04-27 21:22:00,47.5,31.0,29.88,NNW,337,3.0,3.7,51,0.00,,,0.00,Rainwise IP-100,2013-04-28 01:22:00,
2013-04-27 21:28:00,47.5,31.0,29.88,North,360,3.5,4.7,51,0.00,,,0.00,Rainwise IP-100,2013-04-28 01:28:00,
2013-04-27 21:33:00,47.4,31.0,29.88,NNW,337,0.0,3.7,51,0.00,,,0.00,Rainwise IP-100,2013-04-28 01:33:00,
2013-04-27 21:38:00,47.1,31.0,29.88,NNW,337,0.0,1.6,52,0.00,,,0.00,Rainwise IP-100,2013-04-28 01:38:00,
2013-04-27 21:43:00,46.7,31.0,29.88,WSW,247,1.6,2.1,53,0.00,,,0.00,Rainwise IP-100,2013-04-28 01:43:00,
2013-04-27 21:48:00,46.3,31.0,29.87,WSW,247,1.9,1.9,54,0.00,,,0.00,Rainwise IP-100,2013-04-28 01:48:00,
2013-04-27 21:53:00,46.2,31.0,29.88,NNW,337,0.0,5.1,56,0.00,,,0.00,Rainwise IP-100,2013-04-28 01:53:00,
2013-04-27 21:58:00,46.0,32.0,29.88,NNW,337,0.0,0.0,57,0.00,,,0.00,Rainwise IP-100,2013-04-28 01:58:00,
2013-04-27 22:03:00,45.5,32.0,29.88,NNW,337,0.0,1.9,58,0.00,,,0.00,Rainwise IP-100,2013-04-28 02:03:00,
2013-04-27 22:08:00,45.2,31.0,29.88,WNW,292,1.2,1.2,58,0.00,,,0.00,Rainwise IP-100,2013-04-28 02:08:00,
2013-04-27 22:13:00,45.1,31.0,29.88,WNW,292,0.0,2.3,57,0.00,,,0.00,Rainwise IP-100,2013-04-28 02:13:00,
2013-04-27 22:18:00,44.8,31.0,29.88,WNW,292,0.0,0.0,57,0.00,,,0.00,Rainwise IP-100,2013-04-28 02:18:00,
2013-04-27 22:23:00,44.2,31.0,29.88,NNW,337,3.0,3.0,59,0.00,,,0.00,Rainwise IP-100,2013-04-28 02:23:00,
2013-04-27 22:28:00,44.0,31.0,29.88,North,360,2.1,3.7,59,0.00,,,0.00,Rainwise IP-100,2013-04-28 02:28:00,
2013-04-27 22:33:00,44.1,31.0,29.88,North,360,0.0,2.6,59,0.00,,,0.00,Rainwise IP-100,2013-04-28 02:33:00,
2013-04-27 22:38:00,43.8,31.0,29.88,North,360,0.0,0.0,59,0.00,,,0.00,Rainwise IP-100,2013-04-28 02:38:00,
2013-04-27 22:44:00,43.5,31.0,29.88,SSE,157,1.4,3.3,60,0.00,,,0.00,Rainwise IP-100,2013-04-28 02:44:00,
2013-04-27 22:49:00,43.1,31.0,29.88,SSE,157,0.0,1.6,61,0.00,,,0.00,Rainwise IP-100,2013-04-28 02:49:00,
2013-04-27 22:54:00,42.8,31.0,29.88,SSE,157,0.0,0.0,62,0.00,,,0.00,Rainwise IP-100,2013-04-28 02:54:00,
2013-04-27 22:59:00,42.6,31.0,29.88,SSE,157,0.0,1.2,62,0.00,,,0.00,Rainwise IP-100,2013-04-28 02:59:00,
2013-04-27 23:04:00,42.3,31.0,29.88,SSW,202,1.2,1.9,64,0.00,,,0.00,Rainwise IP-100,2013-04-28 03:04:00,
2013-04-27 23:09:00,42.1,32.0,29.88,SSW,202,0.0,1.2,65,0.00,,,0.00,Rainwise IP-100,2013-04-28 03:09:00,
2013-04-27 23:14:00,42.0,31.0,29.88,SSW,202,0.0,0.0,64,0.00,,,0.00,Rainwise IP-100,2013-04-28 03:14:00,
2013-04-27 23:19:00,41.7,31.0,29.88,SSW,202,0.0,0.0,64,0.00,,,0.00,Rainwise IP-100,2013-04-28 03:19:00,
2013-04-27 23:24:00,41.3,31.0,29.88,SSW,202,0.0,0.0,66,0.00,,,0.00,Rainwise IP-100,2013-04-28 03:24:00,
2013-04-27 23:29:00,41.1,31.0,29.88,NW,315,1.4,1.4,66,0.00,,,0.00,Rainwise IP-100,2013-04-28 03:29:00,
2013-04-27 23:34:00,40.9,31.0,29.89,NW,315,0.0,1.9,66,0.00,,,0.00,Rainwise IP-100,2013-04-28 03:34:00,
2013-04-27 23:39:00,40.8,31.0,29.89,WNW,292,1.2,4.0,66,0.00,,,0.00,Rainwise IP-100,2013-04-28 03:39:00,
2013-04-27 23:44:00,40.9,31.0,29.89,NNW,337,2.8,4.4,65,0.00,,,0.00,Rainwise IP-100,2013-04-28 03:44:00,
2013-04-27 23:49:00,40.9,31.0,29.89,NNW,337,0.0,3.5,65,0.00,,,0.00,Rainwise IP-100,2013-04-28 03:49:00,
2013-04-27 23:54:00,40.6,31.0,29.89,NNW,337,0.0,0.0,66,0.00,,,0.00,Rainwise IP-100,2013-04-28 03:54:00,